Year,Month,Day,Hour,Minute,Value (Times are PST for temperature in C)
2018,06,12,00,00,7.40
2018,06,12,00,01,7.40
2018,06,12,00,02,7.40
2018,06,12,00,03,7.40
2018,06,12,00,04,7.40
2018,06,12,00,05,7.40
2018,06,12,00,06,7.40
2018,06,12,00,07,7.40
2018,06,12,00,08,7.40
2018,06,12,00,09,7.40
2018,06,12,00,10,7.40
2018,06,12,00,11,7.30
2018,06,12,00,12,7.30
2018,06,12,00,13,7.30
2018,06,12,00,14,7.30
2018,06,12,00,15,7.30
2018,06,12,00,16,7.20
2018,06,12,00,17,7.20
2018,06,12,00,18,7.20
2018,06,12,00,19,7.20
2018,06,12,00,20,7.20
2018,06,12,00,21,7.20
2018,06,12,00,22,7.10
2018,06,12,00,23,7.10
2018,06,12,00,24,7.10
2018,06,12,00,25,7.10
2018,06,12,00,26,7.10
2018,06,12,00,27,7.10
2018,06,12,00,28,7.00
2018,06,12,00,29,7.00
2018,06,12,00,30,7.00
2018,06,12,00,31,7.00
2018,06,12,00,32,7.00
2018,06,12,00,33,7.00
2018,06,12,00,34,6.90
2018,06,12,00,35,6.90
2018,06,12,00,36,6.90
2018,06,12,00,37,6.90
2018,06,12,00,38,6.90
2018,06,12,00,39,6.90
2018,06,12,00,40,6.80
2018,06,12,00,41,6.80
2018,06,12,00,42,6.80
2018,06,12,00,43,6.80
2018,06,12,00,44,6.80
2018,06,12,00,45,6.80
2018,06,12,00,46,6.80
2018,06,12,00,47,6.80
2018,06,12,00,48,6.80
2018,06,12,00,49,6.70
2018,06,12,00,50,6.70
2018,06,12,00,51,6.70
2018,06,12,00,52,6.70
2018,06,12,00,53,6.70
2018,06,12,00,54,6.70
2018,06,12,00,55,6.70
2018,06,12,00,56,6.70
2018,06,12,00,57,6.70
2018,06,12,00,58,6.70
2018,06,12,00,59,6.60
2018,06,12,01,00,6.60
2018,06,12,01,01,6.60
2018,06,12,01,02,6.60
2018,06,12,01,03,6.60
2018,06,12,01,04,6.60
2018,06,12,01,05,6.60
2018,06,12,01,06,6.60
2018,06,12,01,07,6.60
2018,06,12,01,08,6.70
2018,06,12,01,09,6.70
2018,06,12,01,10,6.70
2018,06,12,01,11,6.70
2018,06,12,01,12,6.70
2018,06,12,01,13,6.70
2018,06,12,01,14,6.70
2018,06,12,01,15,6.70
2018,06,12,01,16,6.70
2018,06,12,01,17,6.70
2018,06,12,01,18,6.70
2018,06,12,01,19,6.70
2018,06,12,01,20,6.70
2018,06,12,01,21,6.70
2018,06,12,01,22,6.70
2018,06,12,01,23,6.70
2018,06,12,01,24,6.70
2018,06,12,01,25,6.60
2018,06,12,01,26,6.60
2018,06,12,01,27,6.60
2018,06,12,01,28,6.60
2018,06,12,01,29,6.60
2018,06,12,01,30,6.60
2018,06,12,01,31,6.60
2018,06,12,01,32,6.60
2018,06,12,01,33,6.50
2018,06,12,01,34,6.50
2018,06,12,01,35,6.50
2018,06,12,01,36,6.50
2018,06,12,01,37,6.50
2018,06,12,01,38,6.40
2018,06,12,01,39,6.40
2018,06,12,01,40,6.40
2018,06,12,01,41,6.40
2018,06,12,01,42,6.40
2018,06,12,01,43,6.40
2018,06,12,01,44,6.40
2018,06,12,01,45,6.40
2018,06,12,01,46,6.30
2018,06,12,01,47,6.30
2018,06,12,01,48,6.30
2018,06,12,01,49,6.30
2018,06,12,01,50,6.30
2018,06,12,01,51,6.30
2018,06,12,01,52,6.30
2018,06,12,01,53,6.30
2018,06,12,01,54,6.30
2018,06,12,01,55,6.20
2018,06,12,01,56,6.20
2018,06,12,01,57,6.20
2018,06,12,01,58,6.20
2018,06,12,01,59,6.10
2018,06,12,02,00,6.10
2018,06,12,02,01,6.10
2018,06,12,02,02,6.10
2018,06,12,02,03,6.10
2018,06,12,02,04,6.10
2018,06,12,02,05,6.10
2018,06,12,02,06,6.10
2018,06,12,02,07,6.10
2018,06,12,02,08,6.10
2018,06,12,02,09,6.10
2018,06,12,02,10,6.10
2018,06,12,02,11,6.10
2018,06,12,02,12,6.10
2018,06,12,02,13,6.10
2018,06,12,02,14,6.10
2018,06,12,02,15,6.10
2018,06,12,02,16,6.10
2018,06,12,02,17,6.10
2018,06,12,02,18,6.10
2018,06,12,02,19,6.10
2018,06,12,02,20,6.10
2018,06,12,02,21,6.10
2018,06,12,02,22,6.20
2018,06,12,02,23,6.20
2018,06,12,02,24,6.20
2018,06,12,02,25,6.20
2018,06,12,02,26,6.20
2018,06,12,02,27,6.20
2018,06,12,02,28,6.20
2018,06,12,02,29,6.20
2018,06,12,02,30,6.20
2018,06,12,02,31,6.10
2018,06,12,02,32,6.10
2018,06,12,02,33,6.10
2018,06,12,02,34,6.10
2018,06,12,02,35,6.10
2018,06,12,02,36,6.10
2018,06,12,02,37,6.10
2018,06,12,02,38,6.10
2018,06,12,02,39,6.00
2018,06,12,02,40,6.00
2018,06,12,02,41,6.00
2018,06,12,02,42,6.00
2018,06,12,02,43,6.00
2018,06,12,02,44,6.00
2018,06,12,02,45,6.00
2018,06,12,02,46,5.90
2018,06,12,02,47,5.90
2018,06,12,02,48,5.90
2018,06,12,02,49,5.90
2018,06,12,02,50,5.90
2018,06,12,02,51,5.90
2018,06,12,02,52,5.90
2018,06,12,02,53,5.90
2018,06,12,02,54,5.90
2018,06,12,02,55,5.90
2018,06,12,02,56,5.90
2018,06,12,02,57,5.90
2018,06,12,02,58,5.90
2018,06,12,02,59,5.90
2018,06,12,03,00,6.00
2018,06,12,03,01,6.00
2018,06,12,03,02,6.00
2018,06,12,03,03,6.00
2018,06,12,03,04,6.00
2018,06,12,03,05,6.00
2018,06,12,03,06,6.00
2018,06,12,03,07,6.00
2018,06,12,03,08,6.00
2018,06,12,03,09,6.00
2018,06,12,03,10,6.00
2018,06,12,03,11,6.00
2018,06,12,03,12,6.00
2018,06,12,03,13,6.00
2018,06,12,03,14,5.90
2018,06,12,03,15,5.90
2018,06,12,03,16,5.90
2018,06,12,03,17,5.90
2018,06,12,03,18,5.90
2018,06,12,03,19,5.90
2018,06,12,03,20,5.90
2018,06,12,03,21,5.80
2018,06,12,03,22,5.80
2018,06,12,03,23,5.80
2018,06,12,03,24,5.80
2018,06,12,03,25,5.80
2018,06,12,03,26,5.80
2018,06,12,03,27,5.80
2018,06,12,03,28,5.80
2018,06,12,03,29,5.80
2018,06,12,03,30,5.80
2018,06,12,03,31,5.80
2018,06,12,03,32,5.80
2018,06,12,03,33,5.80
2018,06,12,03,34,5.90
2018,06,12,03,35,5.90
2018,06,12,03,36,5.90
2018,06,12,03,37,5.90
2018,06,12,03,38,5.90
2018,06,12,03,39,5.90
2018,06,12,03,40,5.90
2018,06,12,03,41,5.90
2018,06,12,03,42,5.90
2018,06,12,03,43,5.90
2018,06,12,03,44,5.90
2018,06,12,03,45,5.90
2018,06,12,03,46,5.90
2018,06,12,03,47,5.90
2018,06,12,03,48,5.90
2018,06,12,03,49,5.90
2018,06,12,03,50,5.80
2018,06,12,03,51,5.80
2018,06,12,03,52,5.80
2018,06,12,03,53,5.80
2018,06,12,03,54,5.80
2018,06,12,03,55,5.80
2018,06,12,03,56,5.80
2018,06,12,03,57,5.80
2018,06,12,03,58,5.80
2018,06,12,03,59,5.80
2018,06,12,04,00,5.80
2018,06,12,04,01,5.80
2018,06,12,04,02,5.70
2018,06,12,04,03,5.70
2018,06,12,04,04,5.70
2018,06,12,04,05,5.70
2018,06,12,04,06,5.70
2018,06,12,04,07,5.70
2018,06,12,04,08,5.70
2018,06,12,04,09,5.70
2018,06,12,04,10,5.70
2018,06,12,04,11,5.70
2018,06,12,04,12,5.70
2018,06,12,04,13,5.70
2018,06,12,04,14,5.70
2018,06,12,04,15,5.70
2018,06,12,04,16,5.70
2018,06,12,04,17,5.70
2018,06,12,04,18,5.80
2018,06,12,04,19,5.80
2018,06,12,04,20,5.80
2018,06,12,04,21,5.80
2018,06,12,04,22,5.80
2018,06,12,04,23,5.80
2018,06,12,04,24,5.80
2018,06,12,04,25,5.80
2018,06,12,04,26,5.80
2018,06,12,04,27,5.80
2018,06,12,04,28,5.80
2018,06,12,04,29,5.80
2018,06,12,04,30,5.80
2018,06,12,04,31,5.80
2018,06,12,04,32,5.70
2018,06,12,04,33,5.70
2018,06,12,04,34,5.70
2018,06,12,04,35,5.70
2018,06,12,04,36,5.70
2018,06,12,04,37,5.70
2018,06,12,04,38,5.70
2018,06,12,04,39,5.70
2018,06,12,04,40,5.70
2018,06,12,04,41,5.70
2018,06,12,04,42,5.70
2018,06,12,04,43,5.70
2018,06,12,04,44,5.70
2018,06,12,04,45,5.70
2018,06,12,04,46,5.70
2018,06,12,04,47,5.70
2018,06,12,04,48,5.70
2018,06,12,04,49,5.70
2018,06,12,04,50,5.80
2018,06,12,04,51,5.80
2018,06,12,04,52,5.80
2018,06,12,04,53,5.80
2018,06,12,04,54,5.80
2018,06,12,04,55,5.80
2018,06,12,04,56,5.80
2018,06,12,04,57,5.80
2018,06,12,04,58,5.80
2018,06,12,04,59,5.80
2018,06,12,05,00,5.80
2018,06,12,05,01,5.80
2018,06,12,05,02,5.80
2018,06,12,05,03,5.80
2018,06,12,05,04,5.80
2018,06,12,05,05,5.80
2018,06,12,05,06,5.80
2018,06,12,05,07,5.80
2018,06,12,05,08,5.80
2018,06,12,05,09,5.80
2018,06,12,05,10,5.80
2018,06,12,05,11,5.80
2018,06,12,05,12,5.80
2018,06,12,05,13,5.80
2018,06,12,05,14,5.80
2018,06,12,05,15,5.80
2018,06,12,05,16,5.80
2018,06,12,05,17,5.80
2018,06,12,05,18,5.80
2018,06,12,05,19,5.80
2018,06,12,05,20,5.70
2018,06,12,05,21,5.70
2018,06,12,05,22,5.70
2018,06,12,05,23,5.80
2018,06,12,05,24,5.80
2018,06,12,05,25,5.80
2018,06,12,05,26,5.80
2018,06,12,05,27,5.80
2018,06,12,05,28,5.80
2018,06,12,05,29,5.80
2018,06,12,05,30,5.80
2018,06,12,05,31,5.90
2018,06,12,05,32,5.90
2018,06,12,05,33,5.90
2018,06,12,05,34,5.90
2018,06,12,05,35,5.90
2018,06,12,05,36,6.00
2018,06,12,05,37,6.00
2018,06,12,05,38,6.10
2018,06,12,05,39,6.10
2018,06,12,05,40,6.10
2018,06,12,05,41,6.10
2018,06,12,05,42,6.10
2018,06,12,05,43,6.10
2018,06,12,05,44,6.10
2018,06,12,05,45,6.10
2018,06,12,05,46,6.10
2018,06,12,05,47,6.20
2018,06,12,05,48,6.20
2018,06,12,05,49,6.20
2018,06,12,05,50,6.20
2018,06,12,05,51,6.30
2018,06,12,05,52,6.30
2018,06,12,05,53,6.30
2018,06,12,05,54,6.30
2018,06,12,05,55,6.40
2018,06,12,05,56,6.40
2018,06,12,05,57,6.40
2018,06,12,05,58,6.40
2018,06,12,05,59,6.50
2018,06,12,06,00,6.50
2018,06,12,06,01,6.50
2018,06,12,06,02,6.50
2018,06,12,06,03,6.60
2018,06,12,06,04,6.60
2018,06,12,06,05,6.60
2018,06,12,06,06,6.60
2018,06,12,06,07,6.70
2018,06,12,06,08,6.70
2018,06,12,06,09,6.70
2018,06,12,06,10,6.70
2018,06,12,06,11,6.80
2018,06,12,06,12,6.80
2018,06,12,06,13,6.80
2018,06,12,06,14,6.90
2018,06,12,06,15,6.90
2018,06,12,06,16,7.00
2018,06,12,06,17,7.00
2018,06,12,06,18,7.10
2018,06,12,06,19,7.10
2018,06,12,06,20,7.20
2018,06,12,06,21,7.30
2018,06,12,06,22,7.40
2018,06,12,06,23,7.50
2018,06,12,06,24,7.60
2018,06,12,06,25,7.70
2018,06,12,06,26,7.80
2018,06,12,06,27,7.90
2018,06,12,06,28,8.00
2018,06,12,06,29,8.10
2018,06,12,06,30,8.20
2018,06,12,06,31,8.20
2018,06,12,06,32,8.30
2018,06,12,06,33,8.40
2018,06,12,06,34,8.50
2018,06,12,06,35,8.60
2018,06,12,06,36,8.70
2018,06,12,06,37,8.70
2018,06,12,06,38,8.70
2018,06,12,06,39,8.70
2018,06,12,06,40,8.80
2018,06,12,06,41,8.80
2018,06,12,06,42,8.80
2018,06,12,06,43,8.80
2018,06,12,06,44,8.80
2018,06,12,06,45,8.80
2018,06,12,06,46,8.80
2018,06,12,06,47,8.90
2018,06,12,06,48,8.90
2018,06,12,06,49,8.90
2018,06,12,06,50,9.00
2018,06,12,06,51,9.00
2018,06,12,06,52,9.10
2018,06,12,06,53,9.20
2018,06,12,06,54,9.20
2018,06,12,06,55,9.30
2018,06,12,06,56,9.40
2018,06,12,06,57,9.50
2018,06,12,06,58,9.50
2018,06,12,06,59,9.60
2018,06,12,07,00,9.70
2018,06,12,07,01,9.70
2018,06,12,07,02,9.80
2018,06,12,07,03,9.90
2018,06,12,07,04,9.90
2018,06,12,07,05,10.00
2018,06,12,07,06,10.00
2018,06,12,07,07,10.10
2018,06,12,07,08,10.10
2018,06,12,07,09,10.10
2018,06,12,07,10,10.20
2018,06,12,07,11,10.20
2018,06,12,07,12,10.20
2018,06,12,07,13,10.20
2018,06,12,07,14,10.30
2018,06,12,07,15,10.30
2018,06,12,07,16,10.30
2018,06,12,07,17,10.40
2018,06,12,07,18,10.40
2018,06,12,07,19,10.50
2018,06,12,07,20,10.60
2018,06,12,07,21,10.60
2018,06,12,07,22,10.70
2018,06,12,07,23,10.70
2018,06,12,07,24,10.80
2018,06,12,07,25,10.90
2018,06,12,07,26,10.90
2018,06,12,07,27,11.00
2018,06,12,07,28,11.00
2018,06,12,07,29,11.10
2018,06,12,07,30,11.20
2018,06,12,07,31,11.20
2018,06,12,07,32,11.20
2018,06,12,07,33,11.30
2018,06,12,07,34,11.30
2018,06,12,07,35,11.30
2018,06,12,07,36,11.40
2018,06,12,07,37,11.40
2018,06,12,07,38,11.40
2018,06,12,07,39,11.40
2018,06,12,07,40,11.40
2018,06,12,07,41,11.50
2018,06,12,07,42,11.50
2018,06,12,07,43,11.50
2018,06,12,07,44,11.50
2018,06,12,07,45,11.60
2018,06,12,07,46,11.60
2018,06,12,07,47,11.60
2018,06,12,07,48,11.60
2018,06,12,07,49,11.70
2018,06,12,07,50,11.70
2018,06,12,07,51,11.70
2018,06,12,07,52,11.70
2018,06,12,07,53,11.80
2018,06,12,07,54,11.80
2018,06,12,07,55,11.80
2018,06,12,07,56,11.80
2018,06,12,07,57,11.80
2018,06,12,07,58,11.80
2018,06,12,07,59,11.90
2018,06,12,08,00,11.90
2018,06,12,08,01,11.90
2018,06,12,08,02,11.90
2018,06,12,08,03,11.90
2018,06,12,08,04,11.90
2018,06,12,08,05,12.00
2018,06,12,08,06,12.00
2018,06,12,08,07,12.00
2018,06,12,08,08,12.10
2018,06,12,08,09,12.10
2018,06,12,08,10,12.10
2018,06,12,08,11,12.10
2018,06,12,08,12,12.20
2018,06,12,08,13,12.20
2018,06,12,08,14,12.20
2018,06,12,08,15,12.20
2018,06,12,08,16,12.20
2018,06,12,08,17,12.30
2018,06,12,08,18,12.30
2018,06,12,08,19,12.30
2018,06,12,08,20,12.30
2018,06,12,08,21,12.40
2018,06,12,08,22,12.40
2018,06,12,08,23,12.40
2018,06,12,08,24,12.50
2018,06,12,08,25,12.50
2018,06,12,08,26,12.50
2018,06,12,08,27,12.60
2018,06,12,08,28,12.60
2018,06,12,08,29,12.60
2018,06,12,08,30,12.70
2018,06,12,08,31,12.70
2018,06,12,08,32,12.80
2018,06,12,08,33,12.80
2018,06,12,08,34,12.80
2018,06,12,08,35,12.80
2018,06,12,08,36,12.90
2018,06,12,08,37,12.90
2018,06,12,08,38,12.90
2018,06,12,08,39,13.00
2018,06,12,08,40,13.10
2018,06,12,08,41,13.10
2018,06,12,08,42,13.20
2018,06,12,08,43,13.20
2018,06,12,08,44,13.20
2018,06,12,08,45,13.30
2018,06,12,08,46,13.30
2018,06,12,08,47,13.40
2018,06,12,08,48,13.40
2018,06,12,08,49,13.40
2018,06,12,08,50,13.50
2018,06,12,08,51,13.60
2018,06,12,08,52,13.60
2018,06,12,08,53,13.60
2018,06,12,08,54,13.60
2018,06,12,08,55,13.60
2018,06,12,08,56,13.70
2018,06,12,08,57,13.70
2018,06,12,08,58,13.70
2018,06,12,08,59,13.70
2018,06,12,09,00,13.70
2018,06,12,09,01,13.70
2018,06,12,09,02,13.70
2018,06,12,09,03,13.70
2018,06,12,09,04,13.70
2018,06,12,09,05,13.70
2018,06,12,09,06,13.70
2018,06,12,09,07,13.60
2018,06,12,09,08,13.60
2018,06,12,09,09,13.60
2018,06,12,09,10,13.70
2018,06,12,09,11,13.70
2018,06,12,09,12,13.60
2018,06,12,09,13,13.70
2018,06,12,09,14,13.70
2018,06,12,09,15,13.60
2018,06,12,09,16,13.70
2018,06,12,09,17,13.70
2018,06,12,09,18,13.70
2018,06,12,09,19,13.70
2018,06,12,09,20,13.70
2018,06,12,09,21,13.70
2018,06,12,09,22,13.70
2018,06,12,09,23,13.70
2018,06,12,09,24,13.70
2018,06,12,09,25,13.70
2018,06,12,09,26,13.70
2018,06,12,09,27,13.70
2018,06,12,09,28,13.70
2018,06,12,09,29,13.70
2018,06,12,09,30,13.70
2018,06,12,09,31,13.70
2018,06,12,09,32,13.70
2018,06,12,09,33,13.70
2018,06,12,09,34,13.70
2018,06,12,09,35,13.70
2018,06,12,09,36,13.70
2018,06,12,09,37,13.70
2018,06,12,09,38,13.70
2018,06,12,09,39,13.70
2018,06,12,09,40,13.70
2018,06,12,09,41,13.70
2018,06,12,09,42,13.70
2018,06,12,09,43,13.70
2018,06,12,09,44,13.70
2018,06,12,09,45,13.70
2018,06,12,09,46,13.70
2018,06,12,09,47,13.70
2018,06,12,09,48,13.70
2018,06,12,09,49,13.70
2018,06,12,09,50,13.70
2018,06,12,09,51,13.70
2018,06,12,09,52,13.70
2018,06,12,09,53,13.70
2018,06,12,09,54,13.70
2018,06,12,09,55,13.70
2018,06,12,09,56,13.70
2018,06,12,09,57,13.80
2018,06,12,09,58,13.80
2018,06,12,09,59,13.80
2018,06,12,10,00,13.90
2018,06,12,10,01,13.90
2018,06,12,10,02,14.00
2018,06,12,10,03,14.00
2018,06,12,10,04,14.10
2018,06,12,10,05,14.10
2018,06,12,10,06,14.10
2018,06,12,10,07,14.20
2018,06,12,10,08,14.20
2018,06,12,10,09,14.20
2018,06,12,10,10,14.20
2018,06,12,10,11,14.30
2018,06,12,10,12,14.30
2018,06,12,10,13,14.40
2018,06,12,10,14,14.40
2018,06,12,10,15,14.50
2018,06,12,10,16,14.50
2018,06,12,10,17,14.60
2018,06,12,10,18,14.70
2018,06,12,10,19,14.70
2018,06,12,10,20,14.70
2018,06,12,10,21,14.70
2018,06,12,10,22,14.80
2018,06,12,10,23,14.80
2018,06,12,10,24,14.80
2018,06,12,10,25,14.80
2018,06,12,10,26,14.80
2018,06,12,10,27,14.80
2018,06,12,10,28,14.90
2018,06,12,10,29,14.90
2018,06,12,10,30,14.90
2018,06,12,10,31,15.00
2018,06,12,10,32,15.00
2018,06,12,10,33,15.10
2018,06,12,10,34,15.10
2018,06,12,10,35,15.10
2018,06,12,10,36,15.10
2018,06,12,10,37,15.20
2018,06,12,10,38,15.20
2018,06,12,10,39,15.30
2018,06,12,10,40,15.30
2018,06,12,10,41,15.40
2018,06,12,10,42,15.50
2018,06,12,10,43,15.50
2018,06,12,10,44,15.50
2018,06,12,10,45,15.50
2018,06,12,10,46,15.50
2018,06,12,10,47,15.40
2018,06,12,10,48,15.40
2018,06,12,10,49,15.40
2018,06,12,10,50,15.40
2018,06,12,10,51,15.40
2018,06,12,10,52,15.40
2018,06,12,10,53,15.40
2018,06,12,10,54,15.40
2018,06,12,10,55,15.40
2018,06,12,10,56,15.40
2018,06,12,10,57,15.40
2018,06,12,10,58,15.40
2018,06,12,10,59,15.40
2018,06,12,11,00,15.40
2018,06,12,11,01,15.40
2018,06,12,11,02,15.40
2018,06,12,11,03,15.40
2018,06,12,11,04,15.40
2018,06,12,11,05,15.30
2018,06,12,11,06,15.30
2018,06,12,11,07,15.30
2018,06,12,11,08,15.30
2018,06,12,11,09,15.30
2018,06,12,11,10,15.30
2018,06,12,11,11,15.30
2018,06,12,11,12,15.30
2018,06,12,11,13,15.30
2018,06,12,11,14,15.30
2018,06,12,11,15,15.30
2018,06,12,11,16,15.30
2018,06,12,11,17,15.30
2018,06,12,11,18,15.30
2018,06,12,11,19,15.30
2018,06,12,11,20,15.30
2018,06,12,11,21,15.30
2018,06,12,11,22,15.30
2018,06,12,11,23,15.30
2018,06,12,11,24,15.30
2018,06,12,11,25,15.30
2018,06,12,11,26,15.30
2018,06,12,11,27,15.30
2018,06,12,11,28,15.30
2018,06,12,11,29,15.30
2018,06,12,11,30,15.30
2018,06,12,11,31,15.30
2018,06,12,11,32,15.30
2018,06,12,11,33,15.30
2018,06,12,11,34,15.30
2018,06,12,11,35,15.30
2018,06,12,11,36,15.20
2018,06,12,11,37,15.20
2018,06,12,11,38,15.20
2018,06,12,11,39,15.20
2018,06,12,11,40,15.20
2018,06,12,11,41,15.20
2018,06,12,11,42,15.20
2018,06,12,11,43,15.10
2018,06,12,11,44,15.10
2018,06,12,11,45,15.10
2018,06,12,11,46,15.10
2018,06,12,11,47,15.10
2018,06,12,11,48,15.10
2018,06,12,11,49,15.10
2018,06,12,11,50,15.10
2018,06,12,11,51,15.10
2018,06,12,11,52,15.10
2018,06,12,11,53,15.10
2018,06,12,11,54,15.10
2018,06,12,11,55,15.10
2018,06,12,11,56,15.10
2018,06,12,11,57,15.10
2018,06,12,11,58,15.10
2018,06,12,11,59,15.10
2018,06,12,12,00,15.10
2018,06,12,12,01,15.20
2018,06,12,12,02,15.20
2018,06,12,12,03,15.20
2018,06,12,12,04,15.20
2018,06,12,12,05,15.20
2018,06,12,12,06,15.30
2018,06,12,12,07,15.30
2018,06,12,12,08,15.30
2018,06,12,12,09,15.30
2018,06,12,12,10,15.30
2018,06,12,12,11,15.30
2018,06,12,12,12,15.30
2018,06,12,12,13,15.30
2018,06,12,12,14,15.30
2018,06,12,12,15,15.30
2018,06,12,12,16,15.30
2018,06,12,12,17,15.30
2018,06,12,12,18,15.30
2018,06,12,12,19,15.20
2018,06,12,12,20,15.20
2018,06,12,12,21,15.20
2018,06,12,12,22,15.20
2018,06,12,12,23,15.20
2018,06,12,12,24,15.20
2018,06,12,12,25,15.20
2018,06,12,12,26,15.20
2018,06,12,12,27,15.20
2018,06,12,12,28,15.30
2018,06,12,12,29,15.30
2018,06,12,12,30,15.30
2018,06,12,12,31,15.30
2018,06,12,12,32,15.30
2018,06,12,12,33,15.30
2018,06,12,12,34,15.30
2018,06,12,12,35,15.30
2018,06,12,12,36,15.30
2018,06,12,12,37,15.30
2018,06,12,12,38,15.30
2018,06,12,12,39,15.20
2018,06,12,12,40,15.20
2018,06,12,12,41,15.20
2018,06,12,12,42,15.20
2018,06,12,12,43,15.20
2018,06,12,12,44,15.20
2018,06,12,12,45,15.20
2018,06,12,12,46,15.20
2018,06,12,12,47,15.20
2018,06,12,12,48,15.20
2018,06,12,12,49,15.30
2018,06,12,12,50,15.30
2018,06,12,12,51,15.30
2018,06,12,12,52,15.30
2018,06,12,12,53,15.30
2018,06,12,12,54,15.30
2018,06,12,12,55,15.30
2018,06,12,12,56,15.40
2018,06,12,12,57,15.40
2018,06,12,12,58,15.40
2018,06,12,12,59,15.40
2018,06,12,13,00,15.50
2018,06,12,13,01,15.50
2018,06,12,13,02,15.50
2018,06,12,13,03,15.50
2018,06,12,13,04,15.60
2018,06,12,13,05,15.60
2018,06,12,13,06,15.60
2018,06,12,13,07,15.60
2018,06,12,13,08,15.70
2018,06,12,13,09,15.70
2018,06,12,13,10,15.80
2018,06,12,13,11,15.80
2018,06,12,13,12,15.80
2018,06,12,13,13,15.90
2018,06,12,13,14,15.90
2018,06,12,13,15,15.90
2018,06,12,13,16,16.00
2018,06,12,13,17,16.00
2018,06,12,13,18,16.00
2018,06,12,13,19,16.00
2018,06,12,13,20,16.00
2018,06,12,13,21,16.10
2018,06,12,13,22,16.10
2018,06,12,13,23,16.10
2018,06,12,13,24,16.10
2018,06,12,13,25,16.10
2018,06,12,13,26,16.00
2018,06,12,13,27,16.00
2018,06,12,13,28,16.00
2018,06,12,13,29,15.90
2018,06,12,13,30,15.90
2018,06,12,13,31,15.90
2018,06,12,13,32,15.90
2018,06,12,13,33,15.90
2018,06,12,13,34,15.90
2018,06,12,13,35,15.90
2018,06,12,13,36,15.80
2018,06,12,13,37,15.70
2018,06,12,13,38,15.70
2018,06,12,13,39,15.70
2018,06,12,13,40,15.60
2018,06,12,13,41,15.60
2018,06,12,13,42,15.60
2018,06,12,13,43,15.60
2018,06,12,13,44,15.60
2018,06,12,13,45,15.60
2018,06,12,13,46,15.60
2018,06,12,13,47,15.60
2018,06,12,13,48,15.60
2018,06,12,13,49,15.60
2018,06,12,13,50,15.60
2018,06,12,13,51,15.60
2018,06,12,13,52,15.60
2018,06,12,13,53,15.60
2018,06,12,13,54,15.60
2018,06,12,13,55,15.50
2018,06,12,13,56,15.50
2018,06,12,13,57,15.50
2018,06,12,13,58,15.50
2018,06,12,13,59,15.40
2018,06,12,14,00,15.40
2018,06,12,14,01,15.50
2018,06,12,14,02,15.50
2018,06,12,14,03,15.50
2018,06,12,14,04,15.50
2018,06,12,14,05,15.50
2018,06,12,14,06,15.50
2018,06,12,14,07,15.60
2018,06,12,14,08,15.60
2018,06,12,14,09,15.60
2018,06,12,14,10,15.70
2018,06,12,14,11,15.70
2018,06,12,14,12,15.70
2018,06,12,14,13,15.80
2018,06,12,14,14,15.80
2018,06,12,14,15,15.80
2018,06,12,14,16,15.80
2018,06,12,14,17,15.80
2018,06,12,14,18,15.80
2018,06,12,14,19,15.80
2018,06,12,14,20,15.80
2018,06,12,14,21,15.80
2018,06,12,14,22,15.80
2018,06,12,14,23,15.90
2018,06,12,14,24,15.90
2018,06,12,14,25,15.90
2018,06,12,14,26,15.90
2018,06,12,14,27,15.90
2018,06,12,14,28,15.90
2018,06,12,14,29,15.90
2018,06,12,14,30,15.90
2018,06,12,14,31,15.90
2018,06,12,14,32,15.90
2018,06,12,14,33,15.90
2018,06,12,14,34,15.90
2018,06,12,14,35,15.90
2018,06,12,14,36,15.90
2018,06,12,14,37,15.90
2018,06,12,14,38,15.90
2018,06,12,14,39,16.00
2018,06,12,14,40,16.00
2018,06,12,14,41,16.10
2018,06,12,14,42,16.10
2018,06,12,14,43,16.10
2018,06,12,14,44,16.20
2018,06,12,14,45,16.20
2018,06,12,14,46,16.20
2018,06,12,14,47,16.30
2018,06,12,14,48,16.20
2018,06,12,14,49,16.20
2018,06,12,14,50,16.20
2018,06,12,14,51,16.20
2018,06,12,14,52,16.20
2018,06,12,14,53,16.10
2018,06,12,14,54,16.10
2018,06,12,14,55,16.10
2018,06,12,14,56,16.00
2018,06,12,14,57,16.00
2018,06,12,14,58,16.00
2018,06,12,14,59,15.90
2018,06,12,15,00,15.90
2018,06,12,15,01,15.90
2018,06,12,15,02,15.90
2018,06,12,15,03,15.90
2018,06,12,15,04,15.90
2018,06,12,15,05,15.90
2018,06,12,15,06,15.90
2018,06,12,15,07,15.90
2018,06,12,15,08,15.90
2018,06,12,15,09,16.00
2018,06,12,15,10,16.00
2018,06,12,15,11,16.00
2018,06,12,15,12,16.10
2018,06,12,15,13,16.10
2018,06,12,15,14,16.10
2018,06,12,15,15,16.10
2018,06,12,15,16,16.10
2018,06,12,15,17,16.10
2018,06,12,15,18,16.10
2018,06,12,15,19,16.10
2018,06,12,15,20,16.10
2018,06,12,15,21,16.10
2018,06,12,15,22,16.10
2018,06,12,15,23,16.10
2018,06,12,15,24,16.10
2018,06,12,15,25,16.10
2018,06,12,15,26,16.10
2018,06,12,15,27,16.10
2018,06,12,15,28,16.10
2018,06,12,15,29,16.10
2018,06,12,15,30,16.10
2018,06,12,15,31,16.10
2018,06,12,15,32,16.10
2018,06,12,15,33,16.10
2018,06,12,15,34,16.10
2018,06,12,15,35,16.10
2018,06,12,15,36,16.10
2018,06,12,15,37,16.10
2018,06,12,15,38,16.10
2018,06,12,15,39,16.10
2018,06,12,15,40,16.10
2018,06,12,15,41,16.10
2018,06,12,15,42,16.10
2018,06,12,15,43,16.00
2018,06,12,15,44,16.00
2018,06,12,15,45,16.10
2018,06,12,15,46,16.00
2018,06,12,15,47,16.10
2018,06,12,15,48,16.10
2018,06,12,15,49,16.10
2018,06,12,15,50,16.10
2018,06,12,15,51,16.10
2018,06,12,15,52,16.10
2018,06,12,15,53,16.20
2018,06,12,15,54,16.20
2018,06,12,15,55,16.20
2018,06,12,15,56,16.20
2018,06,12,15,57,16.20
2018,06,12,15,58,16.20
2018,06,12,15,59,16.20
2018,06,12,16,00,16.20
2018,06,12,16,01,16.20
2018,06,12,16,02,16.20
2018,06,12,16,03,16.20
2018,06,12,16,04,16.20
2018,06,12,16,05,16.20
2018,06,12,16,06,16.20
2018,06,12,16,07,16.20
2018,06,12,16,08,16.20
2018,06,12,16,09,16.20
2018,06,12,16,10,16.20
2018,06,12,16,11,16.20
2018,06,12,16,12,16.20
2018,06,12,16,13,16.20
2018,06,12,16,14,16.20
2018,06,12,16,15,16.20
2018,06,12,16,16,16.20
2018,06,12,16,17,16.20
2018,06,12,16,18,16.30
2018,06,12,16,19,16.30
2018,06,12,16,20,16.30
2018,06,12,16,21,16.30
2018,06,12,16,22,16.30
2018,06,12,16,23,16.30
2018,06,12,16,24,16.30
2018,06,12,16,25,16.30
2018,06,12,16,26,16.30
2018,06,12,16,27,16.30
2018,06,12,16,28,16.30
2018,06,12,16,29,16.20
2018,06,12,16,30,16.20
2018,06,12,16,31,16.20
2018,06,12,16,32,16.20
2018,06,12,16,33,16.20
2018,06,12,16,34,16.10
2018,06,12,16,35,16.10
2018,06,12,16,36,16.10
2018,06,12,16,37,16.00
2018,06,12,16,38,16.00
2018,06,12,16,39,16.00
2018,06,12,16,40,15.90
2018,06,12,16,41,15.90
2018,06,12,16,42,15.80
2018,06,12,16,43,15.80
2018,06,12,16,44,15.70
2018,06,12,16,45,15.70
2018,06,12,16,46,15.70
2018,06,12,16,47,15.60
2018,06,12,16,48,15.60
2018,06,12,16,49,15.60
2018,06,12,16,50,15.50
2018,06,12,16,51,15.50
2018,06,12,16,52,15.50
2018,06,12,16,53,15.50
2018,06,12,16,54,15.50
2018,06,12,16,55,15.40
2018,06,12,16,56,15.40
2018,06,12,16,57,15.40
2018,06,12,16,58,15.40
2018,06,12,16,59,15.30
2018,06,12,17,00,15.30
2018,06,12,17,01,15.30
2018,06,12,17,02,15.30
2018,06,12,17,03,15.30
2018,06,12,17,04,15.20
2018,06,12,17,05,15.20
2018,06,12,17,06,15.10
2018,06,12,17,07,15.10
2018,06,12,17,08,15.10
2018,06,12,17,09,15.00
2018,06,12,17,10,15.00
2018,06,12,17,11,15.00
2018,06,12,17,12,14.90
2018,06,12,17,13,14.90
2018,06,12,17,14,14.90
2018,06,12,17,15,14.80
2018,06,12,17,16,14.80
2018,06,12,17,17,14.80
2018,06,12,17,18,14.80
2018,06,12,17,19,14.80
2018,06,12,17,20,14.80
2018,06,12,17,21,14.80
2018,06,12,17,22,14.70
2018,06,12,17,23,14.70
2018,06,12,17,24,14.70
2018,06,12,17,25,14.70
2018,06,12,17,26,14.70
2018,06,12,17,27,14.70
2018,06,12,17,28,14.70
2018,06,12,17,29,14.70
2018,06,12,17,30,14.70
2018,06,12,17,31,14.70
2018,06,12,17,32,14.70
2018,06,12,17,33,14.60
2018,06,12,17,34,14.60
2018,06,12,17,35,14.70
2018,06,12,17,36,14.70
2018,06,12,17,37,14.70